Wind_Speed
9 7 7 12 5 1 8 7 13 8 12 10 9 13 9 10 13 12 10 10 12 12 10 9 7 8 8 5 3 4 5 4 5 5 8 5 5 4 8 6 3 1 2 2
10 7 9 14 4 13 9 5 13 6 14 6 7 9 10 15 12 8 8 8 8 12 14 8 4 3 4 4 4 5 5 3 3 4 7 9 5 4 7 6 4 1 1 2
13 6 17 21 12 13 14 15 8 5 7 11 11 13 16 16 16 16 17 13 10 7 9 11 9 8 5 8 8 8 5 3 2 1 3 4 2 3 2 3 4 4 0 1
16 15 11 24 10 13 16 10 9 9 11 4 4 5 20 21 15 19 16 20 12 7 4 6 9 7 14 13 12 12 9 4 4 2 1 1 2 2 0 3 2 4 2 3
18 14 16 18 4 6 4 3 10 11 6 4 5 2 4 21 24 16 16 19 17 11 6 5 6 11 13 14 10 8 8 7 7 4 2 2 3 1 3 2 3 4 5 7
15 15 14 5 4 5 3 11 12 8 9 6 4 2 5 4 11 16 18 15 15 14 12 9 13 16 17 12 9 6 3 3 3 7 4 3 3 1 1 1 2 5 6 5
13 14 13 9 10 5 11 18 7 2 5 6 4 3 4 8 9 12 18 17 18 20 21 19 13 13 12 9 8 5 4 5 5 5 4 3 3 2 2 2 2 3 4 5
7 6 7 5 16 13 22 15 5 4 4 4 1 5 4 6 4 4 5 22 22 22 21 20 19 14 12 11 8 9 6 6 8 5 5 2 3 3 2 2 2 2 2 5
8 8 12 6 7 19 27 22 11 4 6 1 3 8 9 6 4 3 2 16 21 26 18 26 21 16 12 13 16 10 7 7 10 4 5 3 4 5 4 2 2 2 3 5
12 14 11 5 5 12 20 8 5 4 2 4 6 9 15 8 1 7 4 4 19 27 16 18 21 22 17 15 15 17 10 4 5 5 3 1 1 0 2 2 4 2 1 4
23 16 16 8 4 8 13 15 5 5 4 7 2 7 12 9 4 7 5 4 12 20 13 12 19 21 23 18 14 13 12 6 3 2 3 3 2 1 1 2 3 3 4 4
23 11 22 20 15 15 13 10 13 7 7 11 4 9 15 15 8 8 7 7 4 10 16 19 24 22 20 19 17 14 10 11 8 7 5 6 5 5 6 9 11 12 13 14
26 26 26 18 15 10 8 15 7 9 14 15 8 6 16 18 12 9 8 9 12 15 23 18 20 20 20 18 17 17 15 12 10 13 13 11 10 11 12 14 16 18 20 22
18 26 24 24 7 3 6 7 7 2 12 13 25 9 22 21 16 14 13 12 13 13 15 20 25 24 22 22 26 21 18 18 16 16 18 18 15 16 20 22 22 24 25 25
15 15 20 13 4 8 7 7 6 8 15 14 16 22 23 20 17 14 13 14 12 10 11 11 12 14 16 19 18 21 21 20 16 16 18 24 22 23 25 26 26 24 24 27
14 13 10 9 9 9 9 8 9 13 19 26 17 18 26 21 18 16 16 16 15 12 9 6 8 12 16 19 21 21 21 22 22 21 19 18 23 25 27 27 28 26 23 24
19 13 14 12 10 11 12 7 5 11 18 22 16 20 24 22 17 16 20 18 13 11 7 1 7 11 14 16 18 22 25 26 22 21 20 24 23 21 21 22 22 23 22 21
13 15 10 6 6 3 5 4 4 7 19 14 13 17 21 19 17 15 18 15 12 7 1 7 10 10 7 8 10 12 15 18 19 20 19 19 19 19 19 17 17 17 19 20
14 12 6 3 3 4 9 8 5 17 15 12 12 17 22 20 18 19 20 15 9 5 4 7 9 7 5 1 1 2 5 9 12 14 15 15 15 15 15 15 15 15 14 13
16 15 9 8 4 6 12 16 16 14 13 11 9 17 26 24 27 22 21 16 10 9 8 10 8 3 5 3 2 3 3 4 4 5 7 8 9 9 7 6 5 6 7 9
15 20 17 10 5 6 10 19 17 13 10 12 13 17 25 27 25 18 21 18 13 11 6 9 2 4 3 2 4 6 7 7 7 7 5 4 2 1 1 1 2 5 9 12
14 15 20 16 9 9 11 19 15 11 9 11 20 17 24 31 28 24 21 18 15 10 5 3 4 8 5 5 5 6 6 5 4 4 3 3 2 1 2 1 4 8 11 11
19 23 24 25 20 12 12 11 9 8 9 8 12 18 26 31 30 27 23 20 14 11 5 4 5 10 14 7 3 3 2 2 1 0 1 2 1 1 3 4 6 9 12 8
13 19 18 22 18 10 18 19 11 12 10 13 15 18 22 29 31 28 23 23 15 10 3 5 7 8 10 14 5 2 3 4 4 4 3 4 3 3 4 5 6 8 10 12
13 15 19 17 18 19 20 21 17 7 8 12 14 15 19 22 25 29 24 23 13 9 7 4 6 6 8 14 12 6 6 6 6 6 5 5 4 4 5 4 6 7 10 12
14 18 17 23 20 18 18 15 10 8 7 8 11 13 12 16 30 31 31 19 16 11 5 6 4 5 9 16 13 8 9 7 8 7 6 4 6 5 4 4 4 5 8 11
Wind_Direction
302 340 36 345 27 116 75 55 338 316 262 241 268 246 226 164 170 177 174 155 156 147 135 149 138 104 78 46 64 12 24 356 343 306 280 257 238 222 212 228 269 26 346 296
290 311 13 358 227 210 228 340 42 212 238 247 245 214 215 210 200 200 201 173 180 182 167 166 132 45 62 80 99 71 66 39 350 336 277 287 289 216 211 233 238 231 23 290
287 309 328 327 278 239 246 256 259 212 210 211 206 223 225 240 223 219 224 235 194 177 185 189 179 149 134 111 99 85 98 131 87 354 312 297 344 46 227 229 213 217 176 309
285 290 312 331 288 278 272 289 241 231 163 193 202 235 232 242 242 231 225 235 220 196 147 200 199 171 149 129 95 87 82 91 80 80 341 41 33 62 217 211 234 248 271 308
259 292 319 326 274 62 347 139 167 210 204 145 228 234 192 225 240 239 224 230 232 218 221 76 151 137 155 139 126 99 97 68 49 43 10 10 43 98 203 203 169 253 277 292
276 277 289 317 310 309 206 153 172 233 204 297 26 360 346 256 269 263 244 224 229 219 226 222 129 148 168 172 175 186 165 28 22 23 6 357 1 332 203 264 275 277 292 312
274 260 280 249 241 246 202 162 143 248 200 238 26 1 299 314 269 255 243 225 220 216 224 229 191 168 171 186 202 217 246 254 293 348 8 336 333 310 279 279 293 321 302 292
268 253 233 347 235 227 199 188 265 203 195 243 157 247 259 299 308 291 263 229 234 220 215 232 214 184 185 212 213 233 253 263 276 317 337 293 270 271 257 274 287 297 264 225
227 241 216 279 259 228 211 234 248 162 72 298 251 256 283 265 283 354 288 229 235 226 214 224 221 203 184 214 230 230 253 256 245 298 310 285 267 274 269 266 323 291 248 229
240 251 230 278 315 233 233 251 221 252 124 294 275 263 242 240 254 46 70 248 237 222 253 218 206 216 231 222 230 238 238 212 229 255 293 235 178 277 305 41 73 61 302 278
228 243 243 247 248 256 212 185 210 182 223 186 223 259 247 220 169 99 90 102 213 240 204 202 201 209 208 219 216 208 212 202 167 180 201 180 137 102 325 10 15 7 354 337
222 235 254 262 276 263 256 248 237 240 228 227 232 271 232 220 180 127 113 115 130 200 203 175 188 200 224 227 225 219 216 211 201 210 222 225 254 273 282 291 297 301 302 298
222 227 246 268 263 264 204 185 203 236 261 218 192 245 204 200 190 141 119 116 127 139 156 172 191 203 221 237 245 235 240 231 211 247 245 248 252 273 283 288 288 289 291 289
219 220 230 234 250 214 188 224 206 292 224 219 223 242 204 199 183 168 151 143 129 138 151 182 202 218 244 248 246 254 260 249 238 235 239 251 254 265 274 283 291 294 289 286
176 215 214 208 241 250 275 251 235 248 223 225 234 232 212 200 181 176 168 165 146 137 178 202 211 231 245 246 247 247 253 253 250 255 253 249 250 257 270 285 285 283 287 289
189 179 197 200 258 262 223 258 256 263 226 233 232 226 205 190 186 182 185 174 173 167 155 186 234 250 252 249 253 255 254 257 255 265 270 256 257 260 264 271 281 283 284 292
200 203 200 232 242 260 241 254 263 236 210 198 194 201 195 192 191 196 182 168 152 167 173 240 291 283 271 264 256 253 259 265 263 266 262 264 257 255 265 273 281 277 289 293
196 194 171 185 264 221 241 268 299 197 182 197 183 198 204 197 185 194 182 170 176 178 193 324 324 309 288 273 267 259 249 249 254 258 260 258 263 268 271 276 280 285 292 300
193 190 185 204 205 239 205 188 171 154 153 171 202 208 209 199 196 185 184 187 203 227 268 321 316 283 250 228 232 229 232 232 235 238 244 253 261 270 277 281 287 294 304 315
205 199 226 208 188 200 223 181 177 170 180 213 230 232 213 205 202 198 192 189 205 245 286 324 322 117 126 108 122 125 125 123 154 197 222 234 243 251 263 280 297 311 318 323
189 203 220 223 215 234 200 188 183 191 232 232 199 227 221 228 235 228 204 197 206 238 273 314 258 120 125 139 131 117 113 114 113 117 118 114 122 153 235 296 349 336 341 341
234 202 211 213 251 242 201 208 196 221 226 217 216 224 230 232 234 218 216 206 219 243 257 292 103 82 85 90 120 128 120 109 103 90 72 67 63 128 161 255 328 346 342 336
217 222 214 211 231 215 227 230 197 201 194 214 213 219 226 225 223 217 218 220 219 248 260 181 107 65 45 39 75 153 146 160 185 160 15 360 347 288 271 306 331 338 338 6
190 201 217 213 212 205 209 212 194 200 222 227 226 225 231 220 217 214 215 222 225 235 178 158 95 60 26 19 354 290 229 233 237 245 278 312 304 289 301 305 323 338 349 16
176 185 182 188 185 181 184 185 195 209 209 228 231 231 231 237 221 213 214 216 206 168 149 98 68 43 3 354 343 271 255 250 248 246 257 291 290 285 295 294 332 347 24 20
193 187 191 181 199 206 196 188 190 200 234 250 254 242 236 238 219 219 215 204 178 141 101 56 39 9 343 341 326 283 269 256 241 232 245 287 294 291 266 271 346 4 15 12
Height
3187 3187 3188 3190 3192 3189 3188 3188 3185 3183 3184 3185 3184 3185 3186 3188 3189 3190 3192 3193 3195 3196 3199 3201 3202 3205 3205 3206 3207 3208 3208 3208 3208 3209 3211 3210 3210 3209 3208 3208 3208 3208 3207 3207
3187 3186 3188 3190 3190 3190 3187 3185 3182 3180 3181 3183 3183 3183 3184 3186 3187 3189 3192 3194 3195 3197 3198 3200 3202 3203 3205 3206 3207 3208 3208 3209 3209 3211 3212 3211 3210 3209 3208 3208 3209 3209 3208 3207
3186 3187 3188 3187 3186 3186 3184 3181 3181 3182 3181 3182 3183 3183 3181 3183 3186 3188 3189 3193 3195 3196 3197 3199 3201 3203 3205 3206 3207 3208 3209 3209 3211 3211 3212 3211 3210 3210 3210 3210 3210 3208 3208 3206
3185 3185 3187 3186 3184 3185 3181 3179 3182 3184 3184 3183 3184 3183 3178 3179 3182 3183 3186 3188 3192 3194 3196 3197 3199 3202 3204 3206 3208 3209 3209 3211 3211 3211 3211 3210 3209 3210 3210 3211 3210 3209 3208 3207
3183 3184 3184 3183 3184 3184 3183 3181 3183 3186 3187 3184 3181 3179 3176 3178 3177 3178 3182 3184 3187 3191 3195 3197 3198 3200 3204 3206 3208 3209 3210 3211 3211 3212 3211 3210 3209 3210 3211 3210 3209 3208 3208 3207
3183 3185 3186 3186 3184 3183 3184 3184 3186 3189 3190 3186 3180 3178 3174 3175 3175 3177 3180 3182 3183 3187 3192 3195 3198 3199 3202 3205 3206 3208 3209 3210 3212 3212 3211 3209 3209 3209 3209 3209 3208 3208 3207 3207
3182 3182 3183 3184 3184 3183 3183 3182 3189 3195 3194 3185 3179 3177 3174 3173 3172 3172 3173 3176 3179 3183 3188 3191 3196 3198 3200 3203 3205 3208 3209 3209 3211 3211 3210 3210 3209 3209 3208 3208 3209 3208 3207 3207
3180 3181 3181 3181 3180 3180 3181 3182 3181 3180 3185 3179 3176 3173 3171 3170 3168 3168 3168 3170 3174 3179 3183 3188 3193 3196 3198 3201 3203 3206 3208 3208 3210 3210 3209 3208 3208 3208 3208 3208 3208 3207 3207 3206
3178 3178 3178 3178 3179 3182 3181 3182 3181 3177 3180 3179 3176 3171 3169 3168 3167 3165 3163 3165 3169 3173 3180 3185 3190 3193 3196 3199 3201 3203 3205 3207 3208 3210 3209 3208 3207 3207 3207 3208 3207 3207 3206 3205
3176 3177 3177 3178 3178 3178 3179 3182 3181 3177 3180 3180 3174 3170 3166 3166 3167 3165 3164 3164 3166 3170 3175 3180 3186 3191 3194 3197 3199 3200 3203 3205 3207 3208 3208 3208 3208 3207 3207 3207 3207 3206 3206 3205
3174 3176 3175 3176 3177 3176 3178 3179 3177 3177 3177 3175 3175 3167 3164 3166 3167 3166 3166 3166 3166 3169 3173 3178 3182 3187 3192 3194 3196 3198 3200 3203 3204 3206 3207 3207 3208 3208 3207 3208 3208 3207 3206 3205
3168 3171 3170 3170 3173 3174 3172 3175 3175 3175 3174 3171 3170 3165 3164 3165 3167 3167 3168 3167 3167 3167 3171 3176 3181 3186 3189 3191 3193 3196 3198 3201 3202 3204 3206 3207 3207 3207 3207 3207 3207 3206 3205 3204
3162 3167 3168 3169 3172 3170 3169 3169 3170 3170 3168 3165 3167 3163 3161 3163 3167 3167 3169 3170 3170 3171 3173 3177 3182 3184 3185 3187 3189 3192 3196 3199 3200 3202 3204 3205 3205 3206 3206 3205 3203 3202 3202 3200
3157 3160 3163 3165 3166 3167 3168 3167 3165 3164 3164 3161 3160 3160 3160 3161 3164 3167 3169 3171 3173 3175 3177 3179 3182 3183 3184 3186 3188 3190 3192 3195 3197 3198 3199 3201 3202 3202 3202 3200 3199 3199 3196 3194
3155 3157 3159 3161 3161 3162 3162 3162 3160 3159 3159 3159 3157 3158 3159 3162 3167 3170 3171 3174 3176 3177 3180 3181 3183 3185 3184 3184 3185 3186 3189 3190 3192 3194 3196 3196 3197 3198 3197 3196 3194 3193 3191 3186
3153 3155 3156 3157 3157 3157 3158 3157 3154 3154 3154 3155 3156 3159 3161 3164 3166 3169 3171 3173 3177 3179 3180 3181 3181 3181 3180 3179 3179 3181 3183 3186 3187 3188 3189 3191 3193 3193 3192 3191 3189 3187 3184 3181
3151 3151 3154 3155 3155 3155 3154 3151 3148 3148 3148 3151 3154 3157 3159 3162 3165 3168 3172 3175 3177 3179 3179 3178 3177 3176 3174 3174 3175 3176 3177 3178 3180 3182 3184 3184 3186 3186 3187 3186 3184 3183 3183 3181
3148 3149 3151 3152 3151 3151 3149 3147 3146 3146 3148 3152 3154 3156 3158 3161 3165 3168 3173 3176 3177 3178 3178 3177 3175 3173 3172 3171 3171 3171 3173 3175 3177 3177 3179 3180 3180 3180 3182 3182 3182 3181 3179 3177
3147 3146 3146 3147 3148 3149 3148 3147 3148 3148 3151 3153 3155 3157 3160 3164 3167 3169 3172 3176 3178 3179 3179 3178 3177 3174 3173 3172 3171 3171 3170 3172 3174 3175 3176 3177 3177 3177 3178 3178 3178 3178 3176 3175
3141 3143 3145 3144 3146 3147 3146 3146 3147 3149 3151 3151 3153 3155 3158 3162 3163 3166 3170 3174 3176 3178 3179 3178 3175 3174 3173 3173 3172 3171 3171 3171 3172 3173 3174 3175 3176 3177 3177 3177 3177 3176 3174 3173
3136 3138 3141 3141 3142 3144 3144 3146 3146 3149 3151 3148 3150 3153 3154 3157 3161 3166 3168 3172 3175 3177 3179 3178 3176 3175 3174 3174 3173 3172 3172 3173 3174 3175 3175 3176 3176 3176 3176 3176 3176 3175 3173 3171
3133 3134 3137 3138 3139 3142 3141 3144 3144 3145 3146 3147 3149 3151 3151 3154 3158 3162 3166 3170 3174 3177 3179 3177 3176 3175 3176 3174 3174 3174 3174 3174 3175 3176 3176 3176 3177 3177 3176 3176 3175 3174 3173 3171
3127 3129 3131 3134 3135 3136 3137 3139 3141 3142 3143 3144 3145 3145 3146 3150 3155 3160 3164 3167 3173 3176 3178 3178 3176 3175 3175 3175 3175 3175 3175 3175 3176 3176 3177 3177 3177 3177 3176 3175 3175 3173 3171 3169
3121 3124 3126 3130 3130 3132 3133 3136 3140 3141 3143 3143 3144 3143 3145 3148 3153 3158 3163 3166 3170 3173 3175 3177 3176 3175 3176 3175 3174 3175 3175 3175 3176 3176 3177 3177 3177 3176 3176 3175 3174 3173 3170 3168
3119 3121 3124 3125 3127 3130 3132 3135 3139 3140 3140 3141 3141 3142 3143 3146 3149 3155 3160 3165 3168 3172 3173 3174 3174 3174 3175 3174 3174 3174 3174 3175 3175 3176 3176 3177 3176 3176 3176 3175 3174 3172 3170 3168
3117 3119 3121 3123 3125 3128 3130 3133 3136 3138 3139 3139 3139 3139 3141 3142 3146 3152 3158 3163 3167 3167 3170 3171 3172 3172 3173 3173 3172 3172 3172 3173 3173 3174 3175 3175 3175 3176 3175 3175 3173 3172 3171 3169